Location: Colebrook
(42.0017°N, 73.0973°W)
Time: 21:05:04
(UTC-04:00)

ISS - Pass Details

Date: 02 October 2021
Orbit: 417 x 423 km, 51.6° (Epoch: 21 October)

Event Time Altitude Azimuth Distance (km) Brightness Sun altitude
Rises 19:42:53 0° 307° (NW) 2,365 1.2 -14.0°
Reaches altitude 10° 19:45:02 10° 313° (NW) 1,500 -0.1 -14.4°
Maximum altitude 19:48:18 47° 29° (NNE) 568 -3.3 -15.0°
Enters shadow 19:49:21 33° 79° (E) 726 -3.1 -15.2°
